TimeCDT,TemperatureF,Dew PointF,Humidity,Sea Level PressureIn,VisibilityMPH,Wind Direction,Wind SpeedMPH,Gust SpeedMPH,PrecipitationIn,Events,Conditions,WindDirDegrees,DateUTC
4:51 AM,66.9,60.1,79,29.91,10.0,South,5.8,-,N/A,,Clear,190,2012-10-04 09:51:00
5:51 AM,66.9,61.0,81,29.92,10.0,South,3.5,-,N/A,,Clear,180,2012-10-04 10:51:00
6:51 AM,64.9,60.1,84,29.94,10.0,Calm,Calm,-,N/A,,Clear,0,2012-10-04 11:51:00
7:51 AM,62.1,57.9,86,29.96,5.0,Calm,Calm,-,N/A,,Clear,0,2012-10-04 12:51:00
8:51 AM,66.9,63.0,87,29.98,8.0,Calm,Calm,-,N/A,,Clear,0,2012-10-04 13:51:00
9:42 AM,71.6,64.4,78,30.06,10.0,Calm,Calm,-,N/A,,Mostly Cloudy,0,2012-10-04 14:42:00
9:51 AM,72.0,66.0,81,30.01,10.0,NNW,3.5,-,N/A,,Mostly Cloudy,330,2012-10-04 14:51:00
9:59 AM,71.6,66.2,83,30.06,10.0,Calm,Calm,-,N/A,,Scattered Clouds,0,2012-10-04 14:59:00
11:33 AM,75.2,64.4,69,30.09,10.0,WNW,10.4,-,N/A,,Mostly Cloudy,290,2012-10-04 16:33:00
11:42 AM,77.0,64.4,65,30.09,10.0,WNW,6.9,-,N/A,,Scattered Clouds,290,2012-10-04 16:42:00
11:51 AM,78.1,64.9,64,30.03,10.0,WNW,5.8,-,N/A,,Partly Cloudy,290,2012-10-04 16:51:00
12:51 PM,82.0,64.0,54,30.03,10.0,NNW,4.6,-,N/A,,Partly Cloudy,340,2012-10-04 17:51:00
1:51 PM,82.0,64.0,54,30.03,10.0,Calm,Calm,-,N/A,,Scattered Clouds,0,2012-10-04 18:51:00
2:51 PM,84.0,63.0,49,30.01,10.0,Variable,3.5,-,N/A,,Mostly Cloudy,0,2012-10-04 19:51:00
3:51 PM,84.0,63.0,49,30.01,10.0,Variable,3.5,-,N/A,,Clear,0,2012-10-04 20:51:00
5:51 PM,84.0,64.0,51,30.02,10.0,North,5.8,-,N/A,,Partly Cloudy,10,2012-10-04 22:51:00
6:51 PM,79.0,62.1,56,30.04,10.0,North,11.5,-,N/A,,Clear,360,2012-10-04 23:51:00
7:51 PM,73.9,59.0,59,30.06,10.0,North,10.4,-,N/A,,Clear,360,2012-10-05 00:51:00
10:51 PM,64.0,55.9,75,30.11,10.0,ENE,5.8,-,N/A,,Clear,60,2012-10-05 03:51:00
11:51 PM,62.1,55.0,78,30.11,10.0,ENE,4.6,-,N/A,,Clear,70,2012-10-05 04:51:00